Year,Month,Day,Hour,Minute,Value (Times are PST for temperature in C)
2019,11,26,00,00,-0.60
2019,11,26,00,01,-0.60
2019,11,26,00,02,-0.60
2019,11,26,00,03,-0.60
2019,11,26,00,04,-0.60
2019,11,26,00,05,-0.60
2019,11,26,00,06,-0.60
2019,11,26,00,07,-0.60
2019,11,26,00,08,-0.60
2019,11,26,00,09,-0.60
2019,11,26,00,10,-0.70
2019,11,26,00,11,-0.70
2019,11,26,00,12,-0.70
2019,11,26,00,13,-0.70
2019,11,26,00,14,-0.70
2019,11,26,00,15,-0.70
2019,11,26,00,16,-0.70
2019,11,26,00,17,-0.70
2019,11,26,00,18,-0.70
2019,11,26,00,19,-0.80
2019,11,26,00,20,-0.80
2019,11,26,00,21,-0.80
2019,11,26,00,22,-0.80
2019,11,26,00,23,-0.80
2019,11,26,00,24,-0.80
2019,11,26,00,25,-0.80
2019,11,26,00,26,-0.80
2019,11,26,00,27,-0.80
2019,11,26,00,28,-0.80
2019,11,26,00,29,-0.70
2019,11,26,00,30,-0.70
2019,11,26,00,31,-0.70
2019,11,26,00,32,-0.70
2019,11,26,00,33,-0.70
2019,11,26,00,34,-0.70
2019,11,26,00,35,-0.70
2019,11,26,00,36,-0.70
2019,11,26,00,37,-0.70
2019,11,26,00,38,-0.70
2019,11,26,00,39,-0.80
2019,11,26,00,40,-0.80
2019,11,26,00,41,-0.80
2019,11,26,00,42,-0.80
2019,11,26,00,43,-0.80
2019,11,26,00,44,-0.80
2019,11,26,00,45,-0.80
2019,11,26,00,46,-0.70
2019,11,26,00,47,-0.70
2019,11,26,00,48,-0.70
2019,11,26,00,49,-0.70
2019,11,26,00,50,-0.70
2019,11,26,00,51,-0.70
2019,11,26,00,52,-0.70
2019,11,26,00,53,-0.70
2019,11,26,00,54,-0.70
2019,11,26,00,55,-0.70
2019,11,26,00,56,-0.70
2019,11,26,00,57,-0.60
2019,11,26,00,58,-0.60
2019,11,26,00,59,-0.60
2019,11,26,01,00,-0.50
2019,11,26,01,01,-0.50
2019,11,26,01,02,-0.40
2019,11,26,01,03,-0.40
2019,11,26,01,04,-0.40
2019,11,26,01,05,-0.40
2019,11,26,01,06,-0.30
2019,11,26,01,07,-0.30
2019,11,26,01,08,-0.30
2019,11,26,01,09,-0.30
2019,11,26,01,10,-0.30
2019,11,26,01,11,-0.30
2019,11,26,01,12,-0.30
2019,11,26,01,13,-0.30
2019,11,26,01,14,-0.30
2019,11,26,01,15,-0.30
2019,11,26,01,16,-0.30
2019,11,26,01,17,-0.30
2019,11,26,01,18,-0.30
2019,11,26,01,19,-0.30
2019,11,26,01,20,-0.20
2019,11,26,01,21,-0.20
2019,11,26,01,22,-0.20
2019,11,26,01,23,-0.20
2019,11,26,01,24,-0.20
2019,11,26,01,25,-0.20
2019,11,26,01,26,-0.20
2019,11,26,01,27,-0.20
2019,11,26,01,28,-0.20
2019,11,26,01,29,-0.20
2019,11,26,01,30,-0.20
2019,11,26,01,31,-0.20
2019,11,26,01,32,-0.20
2019,11,26,01,33,-0.20
2019,11,26,01,34,-0.20
2019,11,26,01,35,-0.20
2019,11,26,01,36,-0.20
2019,11,26,01,37,-0.20
2019,11,26,01,38,-0.30
2019,11,26,01,39,-0.30
2019,11,26,01,40,-0.30
2019,11,26,01,41,-0.30
2019,11,26,01,42,-0.30
2019,11,26,01,43,-0.30
2019,11,26,01,44,-0.30
2019,11,26,01,45,-0.30
2019,11,26,01,46,-0.30
2019,11,26,01,47,-0.30
2019,11,26,01,48,-0.30
2019,11,26,01,49,-0.30
2019,11,26,01,50,-0.30
2019,11,26,01,51,-0.30
2019,11,26,01,52,-0.30
2019,11,26,01,53,-0.30
2019,11,26,01,54,-0.30
2019,11,26,01,55,-0.30
2019,11,26,01,56,-0.30
2019,11,26,01,57,-0.30
2019,11,26,01,58,-0.30
2019,11,26,01,59,-0.30
2019,11,26,02,00,-0.30
2019,11,26,02,01,-0.30
2019,11,26,02,02,-0.30
2019,11,26,02,03,-0.30
2019,11,26,02,04,-0.30
2019,11,26,02,05,-0.20
2019,11,26,02,06,-0.20
2019,11,26,02,07,-0.20
2019,11,26,02,08,-0.20
2019,11,26,02,09,-0.20
2019,11,26,02,10,-0.20
2019,11,26,02,11,-0.20
2019,11,26,02,12,-0.20
2019,11,26,02,13,-0.20
2019,11,26,02,14,-0.20
2019,11,26,02,15,-0.20
2019,11,26,02,16,-0.20
2019,11,26,02,17,-0.20
2019,11,26,02,18,-0.20
2019,11,26,02,19,-0.20
2019,11,26,02,20,-0.10
2019,11,26,02,21,-0.10
2019,11,26,02,22,-0.10
2019,11,26,02,23,-0.10
2019,11,26,02,24,-0.10
2019,11,26,02,25,-0.10
2019,11,26,02,26,-0.10
2019,11,26,02,27,-0.10
2019,11,26,02,28,-0.10
2019,11,26,02,29,-0.10
2019,11,26,02,30,-0.10
2019,11,26,02,31,-0.10
2019,11,26,02,32,-0.10
2019,11,26,02,33,-0.10
2019,11,26,02,34,-0.10
2019,11,26,02,35,-0.10
2019,11,26,02,36,0.00
2019,11,26,02,37,0.00
2019,11,26,02,38,0.00
2019,11,26,02,39,0.00
2019,11,26,02,40,0.00
2019,11,26,02,41,0.10
2019,11,26,02,42,0.10
2019,11,26,02,43,0.10
2019,11,26,02,44,0.10
2019,11,26,02,45,0.10
2019,11,26,02,46,0.10
2019,11,26,02,47,0.10
2019,11,26,02,48,0.10
2019,11,26,02,49,0.10
2019,11,26,02,50,0.20
2019,11,26,02,51,0.20
2019,11,26,02,52,0.20
2019,11,26,02,53,0.20
2019,11,26,02,54,0.20
2019,11,26,02,55,0.20
2019,11,26,02,56,0.20
2019,11,26,02,57,0.20
2019,11,26,02,58,0.20
2019,11,26,02,59,0.20
2019,11,26,03,00,0.20
2019,11,26,03,01,0.20
2019,11,26,03,02,0.20
2019,11,26,03,03,0.20
2019,11,26,03,04,0.20
2019,11,26,03,05,0.30
2019,11,26,03,06,0.30
2019,11,26,03,07,0.30
2019,11,26,03,08,0.30
2019,11,26,03,09,0.30
2019,11,26,03,10,0.30
2019,11,26,03,11,0.30
2019,11,26,03,12,0.30
2019,11,26,03,13,0.30
2019,11,26,03,14,0.30
2019,11,26,03,15,0.30
2019,11,26,03,16,0.30
2019,11,26,03,17,0.30
2019,11,26,03,18,0.30
2019,11,26,03,19,0.30
2019,11,26,03,20,0.30
2019,11,26,03,21,0.40
2019,11,26,03,22,0.40
2019,11,26,03,23,0.40
2019,11,26,03,24,0.40
2019,11,26,03,25,0.40
2019,11,26,03,26,0.40
2019,11,26,03,27,0.40
2019,11,26,03,28,0.40
2019,11,26,03,29,0.40
2019,11,26,03,30,0.40
2019,11,26,03,31,0.40
2019,11,26,03,32,0.40
2019,11,26,03,33,0.40
2019,11,26,03,34,0.40
2019,11,26,03,35,0.40
2019,11,26,03,36,0.40
2019,11,26,03,37,0.40
2019,11,26,03,38,0.40
2019,11,26,03,39,0.40
2019,11,26,03,40,0.40
2019,11,26,03,41,0.50
2019,11,26,03,42,0.50
2019,11,26,03,43,0.50
2019,11,26,03,44,0.50
2019,11,26,03,45,0.60
2019,11,26,03,46,0.60
2019,11,26,03,47,0.60
2019,11,26,03,48,0.60
2019,11,26,03,49,0.60
2019,11,26,03,50,0.60
2019,11,26,03,51,0.60
2019,11,26,03,52,0.60
2019,11,26,03,53,0.60
2019,11,26,03,54,0.60
2019,11,26,03,55,0.60
2019,11,26,03,56,0.60
2019,11,26,03,57,0.60
2019,11,26,03,58,0.60
2019,11,26,03,59,0.60
2019,11,26,04,00,0.60
2019,11,26,04,01,0.60
2019,11,26,04,02,0.60
2019,11,26,04,03,0.60
2019,11,26,04,04,0.60
2019,11,26,04,05,0.60
2019,11,26,04,06,0.60
2019,11,26,04,07,0.60
2019,11,26,04,08,0.60
2019,11,26,04,09,0.60
2019,11,26,04,10,0.60
2019,11,26,04,11,0.70
2019,11,26,04,12,0.70
2019,11,26,04,13,0.70
2019,11,26,04,14,0.70
2019,11,26,04,15,0.80
2019,11,26,04,16,0.90
2019,11,26,04,17,1.00
2019,11,26,04,18,1.00
2019,11,26,04,19,1.10
2019,11,26,04,20,1.20
2019,11,26,04,21,1.20
2019,11,26,04,22,1.30
2019,11,26,04,23,1.50
2019,11,26,04,24,1.50
2019,11,26,04,25,1.60
2019,11,26,04,26,1.70
2019,11,26,04,27,1.70
2019,11,26,04,28,1.70
2019,11,26,04,29,1.80
2019,11,26,04,30,1.80
2019,11,26,04,31,1.80
2019,11,26,04,32,1.90
2019,11,26,04,33,1.90
2019,11,26,04,34,1.90
2019,11,26,04,35,2.00
2019,11,26,04,36,2.10
2019,11,26,04,37,2.10
2019,11,26,04,38,2.10
2019,11,26,04,39,2.10
2019,11,26,04,40,2.20
2019,11,26,04,41,2.20
2019,11,26,04,42,2.20
2019,11,26,04,43,2.20
2019,11,26,04,44,2.30
2019,11,26,04,45,2.30
2019,11,26,04,46,2.30
2019,11,26,04,47,2.30
2019,11,26,04,48,2.30
2019,11,26,04,49,2.30
2019,11,26,04,50,2.30
2019,11,26,04,51,2.30
2019,11,26,04,52,2.30
2019,11,26,04,53,2.30
2019,11,26,04,54,2.30
2019,11,26,04,55,2.30
2019,11,26,04,56,2.30
2019,11,26,04,57,2.30
2019,11,26,04,58,2.20
2019,11,26,04,59,2.20
2019,11,26,05,00,2.20
2019,11,26,05,01,2.20
2019,11,26,05,02,2.20
2019,11,26,05,03,2.20
2019,11,26,05,04,2.20
2019,11,26,05,05,2.20
2019,11,26,05,06,2.20
2019,11,26,05,07,2.20
2019,11,26,05,08,2.20
2019,11,26,05,09,2.20
2019,11,26,05,10,2.20
2019,11,26,05,11,2.20
2019,11,26,05,12,2.30
2019,11,26,05,13,2.30
2019,11,26,05,14,2.30
2019,11,26,05,15,2.30
2019,11,26,05,16,2.30
2019,11,26,05,17,2.30
2019,11,26,05,18,2.40
2019,11,26,05,19,2.40
2019,11,26,05,20,2.40
2019,11,26,05,21,2.40
2019,11,26,05,22,2.40
2019,11,26,05,23,2.50
2019,11,26,05,24,2.50
2019,11,26,05,25,2.50
2019,11,26,05,26,2.50
2019,11,26,05,27,2.50
2019,11,26,05,28,2.50
2019,11,26,05,29,2.50
2019,11,26,05,30,2.50
2019,11,26,05,31,2.50
2019,11,26,05,32,2.50
2019,11,26,05,33,2.60
2019,11,26,05,34,2.60
2019,11,26,05,35,2.60
2019,11,26,05,36,2.50
2019,11,26,05,37,2.50
2019,11,26,05,38,2.50
2019,11,26,05,39,2.50
2019,11,26,05,40,2.50
2019,11,26,05,41,2.40
2019,11,26,05,42,2.40
2019,11,26,05,43,2.40
2019,11,26,05,44,2.40
2019,11,26,05,45,2.40
2019,11,26,05,46,2.40
2019,11,26,05,47,2.40
2019,11,26,05,48,2.40
2019,11,26,05,49,2.30
2019,11,26,05,50,2.30
2019,11,26,05,51,2.30
2019,11,26,05,52,2.30
2019,11,26,05,53,2.30
2019,11,26,05,54,2.30
2019,11,26,05,55,2.30
2019,11,26,05,56,2.30
2019,11,26,05,57,2.30
2019,11,26,05,58,2.30
2019,11,26,05,59,2.30
2019,11,26,06,00,2.30
2019,11,26,06,01,2.30
2019,11,26,08,34,3.50
2019,11,26,08,35,3.50
2019,11,26,08,36,3.50
2019,11,26,08,37,3.50
2019,11,26,08,38,3.50
2019,11,26,08,39,3.50
2019,11,26,08,40,3.50
2019,11,26,08,41,3.50
2019,11,26,08,42,3.50
2019,11,26,08,43,3.50
2019,11,26,08,44,3.50
2019,11,26,08,45,3.50
2019,11,26,08,46,3.50
2019,11,26,08,47,3.50
2019,11,26,08,48,3.50
2019,11,26,08,49,3.50
2019,11,26,08,50,3.50
2019,11,26,08,51,3.50
2019,11,26,08,52,3.50
2019,11,26,08,53,3.50
2019,11,26,08,54,3.50
2019,11,26,08,55,3.50
2019,11,26,08,56,3.50
2019,11,26,08,57,3.60
2019,11,26,08,58,3.60
2019,11,26,08,59,3.60
2019,11,26,09,00,3.60
2019,11,26,09,01,3.60
2019,11,26,09,02,3.60
2019,11,26,09,03,3.60
2019,11,26,09,04,3.60
2019,11,26,09,05,3.60
2019,11,26,09,06,3.60
2019,11,26,09,07,3.60
2019,11,26,09,08,3.70
2019,11,26,09,09,3.70
2019,11,26,09,10,3.70
2019,11,26,09,11,3.70
2019,11,26,09,12,3.70
2019,11,26,09,13,3.70
2019,11,26,09,14,3.70
2019,11,26,09,15,3.70
2019,11,26,09,16,3.70
2019,11,26,09,17,3.70
2019,11,26,09,18,3.70
2019,11,26,09,19,3.70
2019,11,26,09,20,3.70
2019,11,26,09,21,3.70
2019,11,26,09,22,3.70
2019,11,26,09,23,3.70
2019,11,26,09,24,3.70
2019,11,26,09,25,3.70
2019,11,26,09,26,3.80
2019,11,26,09,27,3.70
2019,11,26,09,28,3.80
2019,11,26,09,29,3.80
2019,11,26,09,30,3.80
2019,11,26,09,31,3.80
2019,11,26,09,32,3.80
2019,11,26,09,33,3.80
2019,11,26,09,34,3.80
2019,11,26,09,35,3.80
2019,11,26,09,36,3.80
2019,11,26,09,37,3.80
2019,11,26,09,38,3.80
2019,11,26,09,39,3.80
2019,11,26,09,40,3.80
2019,11,26,09,41,3.80
2019,11,26,09,42,3.80
2019,11,26,09,43,3.80
2019,11,26,09,44,3.80
2019,11,26,09,45,3.80
2019,11,26,09,46,3.80
2019,11,26,09,47,3.80
2019,11,26,09,48,3.70
2019,11,26,09,49,3.70
2019,11,26,09,50,3.70
2019,11,26,09,51,3.70
2019,11,26,09,52,3.70
2019,11,26,09,53,3.70
2019,11,26,09,54,3.70
2019,11,26,09,55,3.70
2019,11,26,09,56,3.70
2019,11,26,09,57,3.70
2019,11,26,09,58,3.80
2019,11,26,09,59,3.80
2019,11,26,10,00,3.80
2019,11,26,10,01,3.80
2019,11,26,10,02,3.80
2019,11,26,10,03,3.80
2019,11,26,10,04,3.90
2019,11,26,10,05,3.90
2019,11,26,10,06,3.90
2019,11,26,10,07,3.90
2019,11,26,10,08,3.90
2019,11,26,10,09,3.90
2019,11,26,10,10,3.90
2019,11,26,10,11,3.90
2019,11,26,10,12,3.90
2019,11,26,10,13,3.90
2019,11,26,10,14,3.90
2019,11,26,10,15,3.90
2019,11,26,10,16,3.90
2019,11,26,10,17,3.90
2019,11,26,10,18,3.90
2019,11,26,10,19,3.90
2019,11,26,10,20,3.90
2019,11,26,10,21,4.00
2019,11,26,10,22,4.00
2019,11,26,10,23,4.00
2019,11,26,10,24,4.10
2019,11,26,10,25,4.00
2019,11,26,10,26,4.00
2019,11,26,10,27,4.00
2019,11,26,10,28,4.00
2019,11,26,10,29,4.10
2019,11,26,10,30,4.10
2019,11,26,10,31,4.20
2019,11,26,10,32,4.30
2019,11,26,10,33,4.40
2019,11,26,10,34,4.40
2019,11,26,10,35,4.50
2019,11,26,10,36,4.50
2019,11,26,10,37,4.60
2019,11,26,10,38,4.60
2019,11,26,10,39,4.60
2019,11,26,10,40,4.60
2019,11,26,10,41,4.60
2019,11,26,10,42,4.50
2019,11,26,10,43,4.50
2019,11,26,10,44,4.50
2019,11,26,10,45,4.50
2019,11,26,10,46,4.50
2019,11,26,10,47,4.50
2019,11,26,10,48,4.40
2019,11,26,10,49,4.40
2019,11,26,10,50,4.50
2019,11,26,10,51,4.50
2019,11,26,10,52,4.50
2019,11,26,10,53,4.60
2019,11,26,10,54,4.60
2019,11,26,10,55,4.60
2019,11,26,10,56,4.60
2019,11,26,10,57,4.60
2019,11,26,10,58,4.60
2019,11,26,10,59,4.70
2019,11,26,11,00,4.70
2019,11,26,11,01,4.70
2019,11,26,11,02,4.70
2019,11,26,11,03,4.70
2019,11,26,11,04,4.70
2019,11,26,11,05,4.70
2019,11,26,11,06,4.70
2019,11,26,11,07,4.70
2019,11,26,11,08,4.70
2019,11,26,11,09,4.70
2019,11,26,11,10,4.70
2019,11,26,11,11,4.70
2019,11,26,11,12,4.70
2019,11,26,11,13,4.70
2019,11,26,11,14,4.70
2019,11,26,11,15,4.70
2019,11,26,11,16,4.70
2019,11,26,11,17,4.70
2019,11,26,11,18,4.70
2019,11,26,11,19,4.70
2019,11,26,11,20,4.70
2019,11,26,11,21,4.70
2019,11,26,11,22,4.70
2019,11,26,11,23,4.70
2019,11,26,11,24,4.70
2019,11,26,11,25,4.70
2019,11,26,11,26,4.70
2019,11,26,11,27,4.70
2019,11,26,11,28,4.70
2019,11,26,11,29,4.70
2019,11,26,11,30,4.70
2019,11,26,11,31,4.70
2019,11,26,11,32,4.70
2019,11,26,11,33,4.70
2019,11,26,11,34,4.70
2019,11,26,11,35,4.70
2019,11,26,11,36,4.70
2019,11,26,11,37,4.80
2019,11,26,11,38,4.70
2019,11,26,11,39,4.70
2019,11,26,11,40,4.70
2019,11,26,11,41,4.80
2019,11,26,11,42,4.80
2019,11,26,11,43,4.80
2019,11,26,11,44,4.80
2019,11,26,11,45,4.80
2019,11,26,11,46,4.80
2019,11,26,11,47,4.80
2019,11,26,11,48,4.80
2019,11,26,11,49,4.80
2019,11,26,11,50,4.80
2019,11,26,11,51,4.80
2019,11,26,11,52,4.70
2019,11,26,11,53,4.70
2019,11,26,11,54,4.70
2019,11,26,11,55,4.80
2019,11,26,11,56,4.80
2019,11,26,11,57,4.80
2019,11,26,11,58,4.80
2019,11,26,11,59,4.90
2019,11,26,12,00,4.90
2019,11,26,12,01,4.90
2019,11,26,12,02,4.90
2019,11,26,12,03,5.00
2019,11,26,12,04,5.00
2019,11,26,12,05,5.00
2019,11,26,12,06,5.10
2019,11,26,12,07,5.10
2019,11,26,12,08,5.10
2019,11,26,12,09,5.10
2019,11,26,12,10,5.10
2019,11,26,12,11,5.10
2019,11,26,12,12,5.10
2019,11,26,12,13,5.10
2019,11,26,12,14,5.10
2019,11,26,12,15,5.20
2019,11,26,12,16,5.20
2019,11,26,12,17,5.20
2019,11,26,12,18,5.20
2019,11,26,12,19,5.20
2019,11,26,12,20,5.20
2019,11,26,12,21,5.20
2019,11,26,12,22,5.20
2019,11,26,12,23,5.20
2019,11,26,12,24,5.20
2019,11,26,12,25,5.20
2019,11,26,12,26,5.20
2019,11,26,12,27,5.20
2019,11,26,12,28,5.20
2019,11,26,12,29,5.20
2019,11,26,12,30,5.20
2019,11,26,12,31,5.30
2019,11,26,12,32,5.30
2019,11,26,12,33,5.40
2019,11,26,12,34,5.40
2019,11,26,12,35,5.40
2019,11,26,12,36,5.40
2019,11,26,12,37,5.40
2019,11,26,12,38,5.40
2019,11,26,12,39,5.40
2019,11,26,12,40,5.40
2019,11,26,12,41,5.30
2019,11,26,12,42,5.30
2019,11,26,12,43,5.30
2019,11,26,12,44,5.30
2019,11,26,12,45,5.30
2019,11,26,12,46,5.40
2019,11,26,12,47,5.40
2019,11,26,12,48,5.40
2019,11,26,12,49,5.40
2019,11,26,12,50,5.40
2019,11,26,12,51,5.50
2019,11,26,12,52,5.50
2019,11,26,12,53,5.60
2019,11,26,12,54,5.60
2019,11,26,12,55,5.60
2019,11,26,12,56,5.70
2019,11,26,12,57,5.70
2019,11,26,12,58,5.70
2019,11,26,12,59,5.70
2019,11,26,13,00,5.80
2019,11,26,13,01,5.80
2019,11,26,13,02,5.80
2019,11,26,13,03,5.90
2019,11,26,13,04,5.90
2019,11,26,13,05,5.90
2019,11,26,13,06,5.90
2019,11,26,13,07,5.90
2019,11,26,13,08,6.00
2019,11,26,13,09,6.00
2019,11,26,13,10,6.00
2019,11,26,13,11,6.00
2019,11,26,13,12,6.00
2019,11,26,13,13,6.00
2019,11,26,13,14,6.00
2019,11,26,13,15,6.00
2019,11,26,13,16,6.00
2019,11,26,13,17,6.00
2019,11,26,13,18,6.00
2019,11,26,13,19,6.00
2019,11,26,13,20,6.00
2019,11,26,13,21,5.90
2019,11,26,13,22,5.90
2019,11,26,13,23,5.90
2019,11,26,13,24,5.90
2019,11,26,13,25,5.90
2019,11,26,13,26,5.90
2019,11,26,13,27,5.90
2019,11,26,13,28,5.90
2019,11,26,13,29,5.90
2019,11,26,13,30,5.90
2019,11,26,13,31,5.90
2019,11,26,13,32,5.80
2019,11,26,13,33,5.80
2019,11,26,13,34,5.80
2019,11,26,13,35,5.80
2019,11,26,13,36,5.70
2019,11,26,13,37,5.70
2019,11,26,13,38,5.70
2019,11,26,13,39,5.70
2019,11,26,13,40,5.60
2019,11,26,13,41,5.60
2019,11,26,13,42,5.60
2019,11,26,13,43,5.60
2019,11,26,13,44,5.60
2019,11,26,13,45,5.60
2019,11,26,13,46,5.60
2019,11,26,13,47,5.60
2019,11,26,13,48,5.60
2019,11,26,13,49,5.60
2019,11,26,13,50,5.60
2019,11,26,13,51,5.60
2019,11,26,13,52,5.60
2019,11,26,13,53,5.60
2019,11,26,13,54,5.60
2019,11,26,13,55,5.60
2019,11,26,13,56,5.50
2019,11,26,13,57,5.50
2019,11,26,13,58,5.50
2019,11,26,13,59,5.50
2019,11,26,14,00,5.50
2019,11,26,14,01,5.50
2019,11,26,14,02,5.50
2019,11,26,14,03,5.50
2019,11,26,14,04,5.40
2019,11,26,14,05,5.40
2019,11,26,14,06,5.40
2019,11,26,14,07,5.40
2019,11,26,14,08,5.40
2019,11,26,14,09,5.40
2019,11,26,14,10,5.40
2019,11,26,14,11,5.40
2019,11,26,14,12,5.40
2019,11,26,14,13,5.40
2019,11,26,14,14,5.40
2019,11,26,14,15,5.40
2019,11,26,14,16,5.30
2019,11,26,14,17,5.40
2019,11,26,14,18,5.40
2019,11,26,14,19,5.40
2019,11,26,14,20,5.40
2019,11,26,14,21,5.40
2019,11,26,14,22,5.40
2019,11,26,14,23,5.40
2019,11,26,14,24,5.40
2019,11,26,14,25,5.40
2019,11,26,14,26,5.40
2019,11,26,14,27,5.40
2019,11,26,14,28,5.40
2019,11,26,14,29,5.40
2019,11,26,14,30,5.40
2019,11,26,14,31,5.40
2019,11,26,14,32,5.40
2019,11,26,14,33,5.40
2019,11,26,14,34,5.40
2019,11,26,14,35,5.40
2019,11,26,14,36,5.40
2019,11,26,14,37,5.40
2019,11,26,14,38,5.40
2019,11,26,14,39,5.40
2019,11,26,14,40,5.40
2019,11,26,14,41,5.30
2019,11,26,14,42,5.30
2019,11,26,14,43,5.30
2019,11,26,14,44,5.40
2019,11,26,14,45,5.40
2019,11,26,14,46,5.40
2019,11,26,14,47,5.40
2019,11,26,14,48,5.40
2019,11,26,14,49,5.40
2019,11,26,14,50,5.40
2019,11,26,14,51,5.40
2019,11,26,14,52,5.40
2019,11,26,14,53,5.40
2019,11,26,14,54,5.40
2019,11,26,14,55,5.40
2019,11,26,14,56,5.40
2019,11,26,14,57,5.40
2019,11,26,14,58,5.40
2019,11,26,14,59,5.30
2019,11,26,15,00,5.30
2019,11,26,15,01,5.30
2019,11,26,15,02,5.30
2019,11,26,15,03,5.30
2019,11,26,15,04,5.30
2019,11,26,15,05,5.30
2019,11,26,15,06,5.30
2019,11,26,15,07,5.30
2019,11,26,15,08,5.30
2019,11,26,15,09,5.30
2019,11,26,15,10,5.30
2019,11,26,15,11,5.30
2019,11,26,15,12,5.30
2019,11,26,15,13,5.30
2019,11,26,15,14,5.30
2019,11,26,15,15,5.30
2019,11,26,15,16,5.30
2019,11,26,15,17,5.30
2019,11,26,15,18,5.30
2019,11,26,15,19,5.20
2019,11,26,15,20,5.20
2019,11,26,15,21,5.20
2019,11,26,15,22,5.20
2019,11,26,15,23,5.20
2019,11,26,15,24,5.20
2019,11,26,15,25,5.20
2019,11,26,15,26,5.20
2019,11,26,15,27,5.20
2019,11,26,15,28,5.20
2019,11,26,15,29,5.20
2019,11,26,15,30,5.20
2019,11,26,15,31,5.10
2019,11,26,15,32,5.10
2019,11,26,15,33,5.10
2019,11,26,15,34,5.10
2019,11,26,15,35,5.10
2019,11,26,15,36,5.10
2019,11,26,15,37,5.10
2019,11,26,15,38,5.10
2019,11,26,15,39,5.10
2019,11,26,15,40,5.10
2019,11,26,15,41,5.10
2019,11,26,15,42,5.10
2019,11,26,15,43,5.00
2019,11,26,15,44,5.00
2019,11,26,15,45,5.00
2019,11,26,15,46,5.00
2019,11,26,15,47,5.00
2019,11,26,15,48,5.00
2019,11,26,15,49,4.90
2019,11,26,15,50,4.90
2019,11,26,15,51,4.90
2019,11,26,15,52,4.90
2019,11,26,15,53,4.90
2019,11,26,15,54,4.90
2019,11,26,15,55,4.80
2019,11,26,15,56,4.80
2019,11,26,15,57,4.80
2019,11,26,15,58,4.80
2019,11,26,15,59,4.80
2019,11,26,16,00,4.80
2019,11,26,16,01,4.80
2019,11,26,16,02,4.80
2019,11,26,16,03,4.80
2019,11,26,16,04,4.80
2019,11,26,16,05,4.80
2019,11,26,16,06,4.80
2019,11,26,16,07,4.80
2019,11,26,16,08,4.80
2019,11,26,16,09,4.80
2019,11,26,16,10,4.80
2019,11,26,16,11,4.80
2019,11,26,16,12,4.80
2019,11,26,16,13,4.80
2019,11,26,16,14,4.80
2019,11,26,16,15,4.80
2019,11,26,16,16,4.80
2019,11,26,16,17,4.70
2019,11,26,16,18,4.70
2019,11,26,16,19,4.70
2019,11,26,16,20,4.70
2019,11,26,16,21,4.70
2019,11,26,16,22,4.70
2019,11,26,16,23,4.70
2019,11,26,16,24,4.70
2019,11,26,16,25,4.70
2019,11,26,16,26,4.70
2019,11,26,16,27,4.70
2019,11,26,16,28,4.60
2019,11,26,16,29,4.60
2019,11,26,16,30,4.60
2019,11,26,16,31,4.60
2019,11,26,16,32,4.60
2019,11,26,16,33,4.60
2019,11,26,16,34,4.60
2019,11,26,16,35,4.60
2019,11,26,16,36,4.50
2019,11,26,16,37,4.50
2019,11,26,16,38,4.50
2019,11,26,16,39,4.50
2019,11,26,16,40,4.50
2019,11,26,16,41,4.50
2019,11,26,16,42,4.50
2019,11,26,16,43,4.50
2019,11,26,16,44,4.50
2019,11,26,16,45,4.50
2019,11,26,16,46,4.40
2019,11,26,16,47,4.40
2019,11,26,16,48,4.40
2019,11,26,16,49,4.40
2019,11,26,16,50,4.40
2019,11,26,16,51,4.40
2019,11,26,16,52,4.40
2019,11,26,16,53,4.40
2019,11,26,16,54,4.40
2019,11,26,16,55,4.30
2019,11,26,16,56,4.30
2019,11,26,16,57,4.30
2019,11,26,16,58,4.30
2019,11,26,16,59,4.30
2019,11,26,17,00,4.30
2019,11,26,17,01,4.30
2019,11,26,17,02,4.30
2019,11,26,17,03,4.30
2019,11,26,17,04,4.20
2019,11,26,17,05,4.20
2019,11,26,17,06,4.20
2019,11,26,17,07,4.20
2019,11,26,17,08,4.20
2019,11,26,17,09,4.10
2019,11,26,17,10,4.10
2019,11,26,17,11,4.10
2019,11,26,17,12,4.00
2019,11,26,17,13,4.00
2019,11,26,17,14,4.00
2019,11,26,17,15,4.00
2019,11,26,17,16,3.90
2019,11,26,17,17,3.90
2019,11,26,17,18,3.90
2019,11,26,17,19,3.90
2019,11,26,17,20,3.80
2019,11,26,17,21,3.80
2019,11,26,17,22,3.80
2019,11,26,17,23,3.80
2019,11,26,17,24,3.80
2019,11,26,17,25,3.80
2019,11,26,17,26,3.80
2019,11,26,17,27,3.80
2019,11,26,17,28,3.80
2019,11,26,17,29,3.80
2019,11,26,17,30,3.80
2019,11,26,17,31,3.80
2019,11,26,17,32,3.80
2019,11,26,17,33,3.70
2019,11,26,17,34,3.70
2019,11,26,17,35,3.70
2019,11,26,17,36,3.70
2019,11,26,17,37,3.70
2019,11,26,17,38,3.70
2019,11,26,17,39,3.70
2019,11,26,17,40,3.70
2019,11,26,17,41,3.70
2019,11,26,17,42,3.70
2019,11,26,17,43,3.70
2019,11,26,17,44,3.60
2019,11,26,17,45,3.60
2019,11,26,17,46,3.60
2019,11,26,17,47,3.60
2019,11,26,17,48,3.60
2019,11,26,17,49,3.60
2019,11,26,17,50,3.60
2019,11,26,17,51,3.60
2019,11,26,17,52,3.60
2019,11,26,17,53,3.60
2019,11,26,17,54,3.60
2019,11,26,17,55,3.50
2019,11,26,17,56,3.50
2019,11,26,17,57,3.50
2019,11,26,17,58,3.50
2019,11,26,17,59,3.50
2019,11,26,18,00,3.50
2019,11,26,18,01,3.50
2019,11,26,18,02,3.50
2019,11,26,18,03,3.50
2019,11,26,18,04,3.50
2019,11,26,18,05,3.50
2019,11,26,18,06,3.50
2019,11,26,18,07,3.50
2019,11,26,18,08,3.50
2019,11,26,18,09,3.50
2019,11,26,18,10,3.60
2019,11,26,18,11,3.60
2019,11,26,18,12,3.60
2019,11,26,18,13,3.60
2019,11,26,18,14,3.60
2019,11,26,18,15,3.70
2019,11,26,18,16,3.70
2019,11,26,18,17,3.70
2019,11,26,18,18,3.70
2019,11,26,18,19,3.70
2019,11,26,18,20,3.70
2019,11,26,18,21,3.70
2019,11,26,18,22,3.70
2019,11,26,18,23,3.60
2019,11,26,18,24,3.60
2019,11,26,18,25,3.60
2019,11,26,18,26,3.60
2019,11,26,18,27,3.60
2019,11,26,18,28,3.60
2019,11,26,18,29,3.60
2019,11,26,18,30,3.60
2019,11,26,18,31,3.60
2019,11,26,18,32,3.70
2019,11,26,18,33,3.70
2019,11,26,18,34,3.70
2019,11,26,18,35,3.70
2019,11,26,18,36,3.70
2019,11,26,18,37,3.70
2019,11,26,18,38,3.80
2019,11,26,18,39,3.80
2019,11,26,18,40,3.80
2019,11,26,18,41,3.80
2019,11,26,18,42,3.80
2019,11,26,18,43,3.90
2019,11,26,18,44,3.90
2019,11,26,18,45,3.90
2019,11,26,18,46,3.90
2019,11,26,18,47,3.90
2019,11,26,18,48,4.00
2019,11,26,18,49,4.00
2019,11,26,18,50,4.00
2019,11,26,18,51,4.00
2019,11,26,18,52,4.00
2019,11,26,18,53,4.00
2019,11,26,18,54,4.10
2019,11,26,18,55,4.10
2019,11,26,18,56,4.10
2019,11,26,18,57,4.10
2019,11,26,18,58,4.20
2019,11,26,18,59,4.20
2019,11,26,19,00,4.20
2019,11,26,19,01,4.20
2019,11,26,19,02,4.20
2019,11,26,19,03,4.20
2019,11,26,19,04,4.30
2019,11,26,19,05,4.30
2019,11,26,19,06,4.40
2019,11,26,19,07,4.50
2019,11,26,19,08,4.60
2019,11,26,19,09,4.70
2019,11,26,19,10,4.80
2019,11,26,19,11,4.90
2019,11,26,19,12,5.00
2019,11,26,19,13,5.10
2019,11,26,19,14,5.10
2019,11,26,19,15,5.20
2019,11,26,19,16,5.20
2019,11,26,19,17,5.30
2019,11,26,19,18,5.30
2019,11,26,19,19,5.30
2019,11,26,19,20,5.30
2019,11,26,19,21,5.30
2019,11,26,19,22,5.30
2019,11,26,19,23,5.40
2019,11,26,19,24,5.40
2019,11,26,19,25,5.40
2019,11,26,19,26,5.40
2019,11,26,19,27,5.40
2019,11,26,19,28,5.40
2019,11,26,19,29,5.40
2019,11,26,19,30,5.50
2019,11,26,19,31,5.50
2019,11,26,19,32,5.40
2019,11,26,19,33,5.50
2019,11,26,19,34,5.40
2019,11,26,19,35,5.40
2019,11,26,19,36,5.50
2019,11,26,19,37,5.50
2019,11,26,19,38,5.50
2019,11,26,19,39,5.40
2019,11,26,19,40,5.40
2019,11,26,19,41,5.40
2019,11,26,19,42,5.40
2019,11,26,19,43,5.40
2019,11,26,19,44,5.40
2019,11,26,19,45,5.40
2019,11,26,19,46,5.40
2019,11,26,19,47,5.40
2019,11,26,19,48,5.40
2019,11,26,19,49,5.40
2019,11,26,19,50,5.40
2019,11,26,19,51,5.40
2019,11,26,19,52,5.40
2019,11,26,19,53,5.50
2019,11,26,19,54,5.40
2019,11,26,19,55,5.40
2019,11,26,19,56,5.40
2019,11,26,19,57,5.40
2019,11,26,19,58,5.40
2019,11,26,19,59,5.40
2019,11,26,20,00,5.40
2019,11,26,20,01,5.40
2019,11,26,20,02,5.40
2019,11,26,20,03,5.40
2019,11,26,20,04,5.40
2019,11,26,20,05,5.40
2019,11,26,20,06,5.40
2019,11,26,20,07,5.40
2019,11,26,20,08,5.40
2019,11,26,20,09,5.40
2019,11,26,20,10,5.40
2019,11,26,20,11,5.40
2019,11,26,20,12,5.40
2019,11,26,20,13,5.40
2019,11,26,20,14,5.40
2019,11,26,20,15,5.40
2019,11,26,20,16,5.40
2019,11,26,20,17,5.40
2019,11,26,20,18,5.40
2019,11,26,20,19,5.30
2019,11,26,20,20,5.30
2019,11,26,20,21,5.30
2019,11,26,20,22,5.30
2019,11,26,20,23,5.30
2019,11,26,20,24,5.30
2019,11,26,20,25,5.30
2019,11,26,20,26,5.40
2019,11,26,20,27,5.40
2019,11,26,20,28,5.40
2019,11,26,20,29,5.40
2019,11,26,20,30,5.40
2019,11,26,20,31,5.40